When you browse on this site, cookies collect data to enhance your experience and personalize the content and advertising you see.
Visit our Privacy Policy to learn more. By continuing to use the site, you agree to this use of cookies and data.

Météo par heure à Felling

Ce jour, 15 Juillet, Mercredi

Heure Température Précipitation Vent Pression Humidité
00:00 +12°C° 0 mm 3 m/s 754 mmHg 87%
01:00 +12°C° 0 mm 3 m/s 753 mmHg 88%
02:00 +11°C° 0 mm 3 m/s 753 mmHg 90%
03:00 +12°C° 0 mm 2 m/s 753 mmHg 91%
04:00 +12°C° 0 mm 2 m/s 753 mmHg 89%
05:00 +13°C° 0 mm 2 m/s 753 mmHg 87%
06:00 +13°C° 0 mm 2 m/s 753 mmHg 86%
07:00 +14°C° 0 mm 2 m/s 753 mmHg 86%
08:00 +14°C° 0 mm 2 m/s 753 mmHg 86%
09:00 +13°C° 0 mm 3 m/s 753 mmHg 86%
10:00 +13°C° 0 mm 3 m/s 753 mmHg 87%
11:00 +14°C° 0 mm 3 m/s 753 mmHg 88%
12:00 +14°C° 0 mm 3 m/s 753 mmHg 89%
13:00 +14°C° 0.1 mm 3 m/s 753 mmHg 88%
14:00 +15°C° 0.1 mm 4 m/s 753 mmHg 88%
15:00 +15°C° 0.1 mm 4 m/s 753 mmHg 87%
16:00 +15°C° 0 mm 5 m/s 753 mmHg 86%
17:00 +16°C° 0 mm 5 m/s 753 mmHg 84%
18:00 +16°C° 0 mm 5 m/s 753 mmHg 82%
19:00 +16°C° 0 mm 5 m/s 754 mmHg 83%
20:00 +15°C° 0 mm 6 m/s 754 mmHg 83%
21:00 +15°C° 0 mm 6 m/s 754 mmHg 84%
22:00 +15°C° 0 mm 6 m/s 754 mmHg 84%
23:00 +15°C° 0 mm 6 m/s 755 mmHg 83%

Demain, 16 Juillet, Jeudi

Heure Température Précipitation Vent Pression Humidité
00:00 +15°C° 0 mm 6 m/s 755 mmHg 82%
01:00 +14°C° 0 mm 6 m/s 755 mmHg 83%
02:00 +14°C° 0 mm 6 m/s 755 mmHg 84%
03:00 +13°C° 0 mm 6 m/s 755 mmHg 85%
04:00 +14°C° 0 mm 6 m/s 755 mmHg 84%
05:00 +14°C° 0 mm 5 m/s 756 mmHg 84%
06:00 +14°C° 0 mm 5 m/s 756 mmHg 84%
07:00 +15°C° 0 mm 5 m/s 756 mmHg 81%
08:00 +16°C° 0 mm 5 m/s 756 mmHg 78%
09:00 +19°C° 0 mm 5 m/s 757 mmHg 76%
10:00 +19°C° 0 mm 4 m/s 757 mmHg 74%
11:00 +20°C° 0 mm 4 m/s 757 mmHg 72%
12:00 +21°C° 0 mm 3 m/s 757 mmHg 71%
13:00 +21°C° 0.1 mm 4 m/s 757 mmHg 73%
14:00 +21°C° 0.1 mm 4 m/s 757 mmHg 75%
15:00 +21°C° 0.1 mm 4 m/s 757 mmHg 77%
16:00 +21°C° 0.1 mm 4 m/s 757 mmHg 77%
17:00 +21°C° 0.1 mm 4 m/s 757 mmHg 78%
18:00 +20°C° 0.1 mm 4 m/s 757 mmHg 78%
19:00 +19°C° 0 mm 4 m/s 757 mmHg 82%
20:00 +18°C° 0 mm 4 m/s 757 mmHg 86%
21:00 +17°C° 0 mm 4 m/s 757 mmHg 90%
22:00 +16°C° 0 mm 3 m/s 757 mmHg 91%
23:00 +16°C° 0 mm 2 m/s 757 mmHg 91%

Après-demain, 17 Juillet, Vendredi

Heure Température Précipitation Vent Pression Humidité
00:00 +15°C° 0 mm 2 m/s 757 mmHg 92%
01:00 +15°C° 0 mm 2 m/s 757 mmHg 92%
02:00 +15°C° 0 mm 2 m/s 757 mmHg 93%
03:00 +14°C° 0 mm 2 m/s 756 mmHg 93%
04:00 +14°C° 0 mm 3 m/s 756 mmHg 92%
05:00 +16°C° 0 mm 3 m/s 756 mmHg 90%
06:00 +16°C° 0 mm 3 m/s 756 mmHg 89%
07:00 +17°C° 0 mm 3 m/s 756 mmHg 83%
08:00 +18°C° 0 mm 4 m/s 756 mmHg 78%
09:00 +19°C° 0 mm 4 m/s 756 mmHg 73%
10:00 +19°C° 0 mm 4 m/s 756 mmHg 71%
11:00 +20°C° 0 mm 4 m/s 756 mmHg 70%
12:00 +21°C° 0 mm 4 m/s 756 mmHg 68%
13:00 +20°C° 0 mm 4 m/s 755 mmHg 71%
14:00 +19°C° 0 mm 4 m/s 755 mmHg 74%
15:00 +19°C° 0 mm 4 m/s 755 mmHg 77%
16:00 +19°C° 0 mm 4 m/s 755 mmHg 78%
17:00 +18°C° 0 mm 4 m/s 754 mmHg 78%
18:00 +17°C° 0 mm 5 m/s 754 mmHg 79%
19:00 +18°C° 0 mm 4 m/s 754 mmHg 80%
20:00 +17°C° 0 mm 4 m/s 754 mmHg 81%
21:00 +17°C° 0 mm 4 m/s 754 mmHg 83%
22:00 +17°C° 0 mm 4 m/s 754 mmHg 84%
23:00 +16°C° 0 mm 3 m/s 754 mmHg 86%

18 Juillet, Samedi

Heure Température Précipitation Vent Pression Humidité
00:00 +16°C° 0 mm 3 m/s 753 mmHg 88%
01:00 +16°C° 0 mm 3 m/s 753 mmHg 89%
02:00 +14°C° 0 mm 3 m/s 753 mmHg 90%
03:00 +14°C° 0 mm 3 m/s 753 mmHg 91%
04:00 +14°C° 0 mm 3 m/s 753 mmHg 88%
05:00 +13°C° 0 mm 3 m/s 754 mmHg 84%
06:00 +13°C° 0 mm 3 m/s 754 mmHg 80%
07:00 +14°C° 0 mm 3 m/s 754 mmHg 75%
08:00 +14°C° 0 mm 3 m/s 754 mmHg 71%
09:00 +16°C° 0 mm 3 m/s 754 mmHg 66%
10:00 +17°C° 0 mm 3 m/s 754 mmHg 64%
11:00 +17°C° 0 mm 3 m/s 754 mmHg 62%
12:00 +18°C° 0 mm 3 m/s 754 mmHg 60%
13:00 +18°C° 0 mm 3 m/s 754 mmHg 61%
14:00 +18°C° 0 mm 4 m/s 754 mmHg 61%
15:00 +18°C° 0 mm 4 m/s 754 mmHg 62%
16:00 +18°C° 0.1 mm 4 m/s 754 mmHg 64%
17:00 +17°C° 0.1 mm 4 m/s 754 mmHg 67%
18:00 +15°C° 0.1 mm 5 m/s 754 mmHg 70%
19:00 +14°C° 0 mm 5 m/s 755 mmHg 72%
20:00 +13°C° 0 mm 4 m/s 755 mmHg 74%
21:00 +12°C° 0 mm 4 m/s 755 mmHg 76%
22:00 +11°C° 0 mm 4 m/s 755 mmHg 78%
23:00 +9°C° 0 mm 5 m/s 755 mmHg 81%

19 Juillet, Dimanche

Heure Température Précipitation Vent Pression Humidité
00:00 +9°C° 0 mm 5 m/s 755 mmHg 83%
01:00 +8°C° 0 mm 5 m/s 756 mmHg 84%
02:00 +8°C° 0 mm 5 m/s 756 mmHg 84%
03:00 +7°C° 0 mm 5 m/s 756 mmHg 85%
04:00 +8°C° 0 mm 5 m/s 756 mmHg 83%
05:00 +9°C° 0 mm 5 m/s 756 mmHg 81%
06:00 +9°C° 0 mm 6 m/s 756 mmHg 80%
07:00 +10°C° 0 mm 5 m/s 756 mmHg 75%
08:00 +13°C° 0 mm 5 m/s 756 mmHg 70%
09:00 +14°C° 0 mm 5 m/s 756 mmHg 66%
10:00 +14°C° 0 mm 5 m/s 756 mmHg 63%
11:00 +15°C° 0 mm 5 m/s 756 mmHg 60%
12:00 +16°C° 0 mm 5 m/s 757 mmHg 58%
13:00 +16°C° 0 mm 5 m/s 756 mmHg 57%
14:00 +16°C° 0 mm 6 m/s 756 mmHg 57%
15:00 +16°C° 0 mm 6 m/s 756 mmHg 57%
16:00 +15°C° 0.1 mm 6 m/s 756 mmHg 62%
17:00 +14°C° 0.1 mm 6 m/s 756 mmHg 67%
18:00 +14°C° 0.1 mm 6 m/s 756 mmHg 71%
19:00 +13°C° 0 mm 6 m/s 756 mmHg 74%
20:00 +12°C° 0 mm 5 m/s 757 mmHg 76%
21:00 +10°C° 0 mm 5 m/s 757 mmHg 78%
22:00 +9°C° 0 mm 5 m/s 757 mmHg 80%
23:00 +8°C° 0 mm 5 m/s 757 mmHg 83%

20 Juillet, Lundi

Heure Température Précipitation Vent Pression Humidité
00:00 +8°C° 0 mm 5 m/s 757 mmHg 85%
01:00 +8°C° 0 mm 6 m/s 757 mmHg 86%
02:00 +8°C° 0 mm 6 m/s 757 mmHg 86%
03:00 +7°C° 0 mm 6 m/s 757 mmHg 87%
04:00 +8°C° 0 mm 6 m/s 757 mmHg 84%
05:00 +9°C° 0 mm 6 m/s 757 mmHg 82%
06:00 +9°C° 0 mm 7 m/s 757 mmHg 80%
07:00 +11°C° 0 mm 7 m/s 757 mmHg 76%
08:00 +12°C° 0 mm 7 m/s 757 mmHg 71%
09:00 +14°C° 0 mm 7 m/s 757 mmHg 67%
10:00 +15°C° 0.2 mm 6 m/s 758 mmHg 66%
11:00 +15°C° 0.2 mm 5 m/s 758 mmHg 65%
12:00 +16°C° 0.2 mm 5 m/s 758 mmHg 63%
13:00 +16°C° 0.4 mm 5 m/s 758 mmHg 64%
14:00 +17°C° 0.4 mm 4 m/s 758 mmHg 64%
15:00 +17°C° 0.4 mm 4 m/s 759 mmHg 64%
16:00 +17°C° 0.3 mm 4 m/s 759 mmHg 67%
17:00 +15°C° 0.3 mm 4 m/s 759 mmHg 69%
18:00 +15°C° 0.3 mm 4 m/s 759 mmHg 72%
19:00 +13°C° 0.1 mm 5 m/s 760 mmHg 74%
20:00 +12°C° 0.1 mm 5 m/s 760 mmHg 75%
21:00 +10°C° 0.1 mm 6 m/s 760 mmHg 77%
22:00 +9°C° 0 mm 6 m/s 760 mmHg 79%
23:00 +8°C° 0 mm 6 m/s 760 mmHg 80%
Voir plus